Theta_e
310 310 310 310 310 310 311 311 311 311 311 311 312 312 312 312 312 312 311 310 311 312 312 312 311 310 311 311 311 311 311 313 313 314 314 314 314 313 313 313 313 313 313 313 313 314 314 314 315 315 315 315 315 315 315 316 316 319 330 331 322 321 322 320 319 315 316 320 313 311 313 314 315 314 313 313 313 314 313 313 314 314 314 314 314 314 314 313
310 310 310 310 310 311 311 311 311 311 311 311 311 312 312 312 312 312 311 310 311 311 312 311 310 310 310 311 311 311 312 314 313 314 315 313 313 313 313 313 313 313 313 313 313 313 314 314 315 315 315 315 315 315 315 316 315 319 329 330 322 322 319 314 315 311 312 316 312 312 313 313 315 314 313 314 313 313 314 314 313 314 314 314 314 314 314 314
310 310 310 310 310 311 311 310 310 310 311 311 311 312 312 312 312 311 310 311 311 311 312 311 310 310 311 311 311 311 313 314 313 314 314 313 313 313 313 313 313 313 313 313 313 313 314 314 315 315 315 315 315 315 315 316 314 313 323 331 323 317 313 310 312 312 313 313 312 312 312 313 314 314 313 313 313 312 314 315 313 314 314 314 314 314 314 314
310 310 310 310 310 310 310 310 310 310 311 311 311 312 312 312 311 310 310 311 311 310 311 310 310 310 311 311 311 311 314 314 313 313 313 313 313 313 313 313 313 313 313 313 313 313 314 315 315 315 315 315 314 315 314 314 314 312 319 327 316 310 313 313 313 313 313 313 313 313 313 313 313 314 313 312 314 314 313 314 314 314 314 314 314 314 314 314
310 310 310 310 311 310 310 310 310 310 311 311 312 312 312 311 310 310 311 310 310 310 310 309 309 310 310 311 311 311 313 314 313 313 313 313 313 313 313 313 313 313 313 313 313 314 314 315 315 315 315 315 315 316 314 313 314 313 313 315 311 309 314 314 312 313 313 312 313 312 313 314 313 313 313 312 315 316 314 313 314 314 314 314 314 314 314 314
310 310 310 310 310 310 310 310 310 311 311 311 312 312 311 311 310 311 310 310 310 309 309 309 309 310 311 311 311 311 312 313 313 312 313 313 313 313 313 313 314 313 313 314 313 314 315 315 315 315 314 314 314 316 315 312 313 317 313 310 310 311 313 314 312 313 313 313 313 312 313 314 313 313 313 312 314 315 314 314 314 314 314 314 314 313 313 313
310 310 310 310 310 310 310 310 310 311 311 312 311 311 311 310 310 310 310 309 309 309 309 309 310 310 311 311 311 311 311 312 313 312 312 313 313 313 313 314 314 314 314 314 314 314 314 315 315 315 315 314 313 313 315 313 314 319 317 311 311 312 313 314 313 313 313 313 314 313 313 313 313 314 313 312 314 314 314 314 314 315 315 314 314 314 313 313
309 310 310 309 309 310 310 311 311 311 311 311 311 310 310 310 310 310 309 308 308 308 308 309 310 310 311 311 311 312 312 312 313 313 313 312 313 313 313 314 314 314 314 314 314 315 315 315 315 315 315 314 314 313 313 314 314 318 317 312 312 313 313 314 313 313 313 313 313 313 313 313 313 313 311 313 314 314 314 314 315 314 315 314 314 314 313 313
309 309 310 310 310 310 311 311 311 311 310 310 310 310 310 310 309 308 307 308 308 308 308 309 310 310 311 311 311 313 313 313 313 313 312 312 313 313 313 313 314 315 314 314 314 314 315 315 315 315 315 313 314 313 313 316 315 314 315 313 313 313 313 314 313 313 313 313 313 313 313 313 312 312 313 314 314 314 314 314 314 315 314 314 314 314 313 313
310 310 310 310 310 310 310 310 309 309 309 309 309 309 309 308 308 307 307 307 308 308 308 309 309 310 310 311 312 313 313 313 313 314 313 312 313 313 313 313 314 315 314 315 314 315 315 315 316 315 315 314 314 313 313 316 315 313 313 313 313 314 314 314 314 314 313 313 313 314 314 313 311 312 315 316 315 314 314 314 314 315 314 314 314 314 313 313
310 310 310 310 310 310 309 309 308 308 308 308 307 307 307 307 307 307 307 307 308 308 309 309 309 310 310 311 312 312 314 315 314 314 313 313 313 313 313 312 313 314 315 315 315 315 315 315 316 315 316 315 314 313 312 313 313 313 313 314 313 313 313 313 313 312 313 313 312 313 313 312 311 312 315 315 315 315 313 314 314 314 314 314 314 313 313 313
310 310 309 309 308 308 307 307 307 306 306 306 306 307 306 307 307 307 307 308 308 308 309 309 309 310 310 311 311 313 315 315 315 314 313 313 312 313 312 312 313 313 315 315 315 315 315 316 316 316 316 314 314 314 313 313 313 313 314 317 318 319 317 313 312 311 312 314 312 312 313 315 314 313 315 314 314 315 313 314 314 314 314 313 313 313 313 312
308 308 307 307 306 306 306 306 306 306 306 306 306 306 307 307 307 307 308 308 308 309 309 309 309 310 310 311 312 312 313 314 315 314 313 313 312 313 312 312 312 313 315 315 315 316 316 317 316 316 315 314 315 313 314 312 312 315 313 315 322 325 322 312 310 311 311 313 312 312 317 326 323 314 312 314 314 314 313 313 313 313 313 313 313 312 312 312
306 306 306 306 306 306 306 306 306 306 306 307 307 307 307 307 307 308 308 308 308 308 309 309 310 310 310 311 312 312 312 312 315 315 313 313 312 313 312 311 312 312 314 314 316 316 316 317 316 316 315 315 314 313 319 316 315 319 312 319 326 319 323 318 309 311 313 312 311 313 318 325 326 316 311 313 313 313 313 313 313 312 313 312 312 312 312 312
306 306 306 306 306 306 306 306 306 307 306 307 307 307 307 308 308 308 308 309 309 309 310 310 310 310 310 310 311 311 311 311 314 315 314 313 312 313 312 312 312 312 314 314 316 316 316 316 315 316 313 315 315 316 326 323 323 324 313 324 327 316 329 327 308 309 314 312 310 313 319 321 321 314 311 312 313 313 313 313 313 312 313 312 312 312 312 312
306 307 307 307 307 307 307 307 307 307 307 308 308 309 309 309 309 309 309 309 309 310 310 310 310 310 310 310 311 312 311 311 313 314 314 313 313 313 313 312 312 313 313 314 315 316 316 316 315 314 313 314 319 329 334 326 328 328 317 323 327 319 327 325 311 308 310 311 311 313 318 323 320 312 310 312 311 312 312 312 313 312 313 312 312 312 312 312
308 308 308 309 309 309 309 309 309 309 309 310 310 310 310 310 310 310 310 310 310 310 309 310 309 309 310 311 312 313 312 311 311 313 314 313 313 313 313 312 312 312 313 314 315 315 315 315 314 314 314 314 319 330 331 323 326 326 318 320 325 322 320 322 321 311 307 311 314 313 314 319 319 311 310 312 311 311 311 312 313 313 313 312 312 312 311 311
309 310 310 310 310 310 310 310 310 310 310 310 310 310 309 310 309 309 310 309 310 309 309 310 310 311 312 311 312 313 314 312 311 313 314 313 314 314 312 312 312 312 313 314 314 315 314 314 315 318 319 317 320 325 324 326 328 324 323 323 322 320 317 322 326 314 309 313 315 315 315 316 316 312 310 311 311 311 312 313 313 312 312 313 312 312 312 312
310 311 311 311 311 311 310 310 310 310 309 309 309 308 308 308 308 309 309 309 309 310 311 311 311 313 314 311 311 313 314 313 312 312 313 315 314 313 313 312 313 313 313 315 315 314 313 315 317 320 321 321 320 321 323 328 328 325 330 334 327 323 321 323 326 315 310 313 316 316 316 316 316 314 312 310 310 310 312 312 312 312 312 312 312 312 312 312
310 311 311 311 311 311 311 310 309 309 308 308 308 308 308 308 309 309 308 308 309 310 312 312 311 312 313 312 311 313 313 313 313 313 313 315 314 313 313 312 313 313 313 317 317 312 314 319 321 323 324 324 320 318 320 322 323 324 328 330 325 322 324 324 323 314 307 313 320 317 315 315 315 315 311 309 309 308 309 309 309 311 312 312 312 312 312 312
311 311 311 311 311 311 311 310 309 309 308 308 307 308 308 308 310 310 308 309 309 309 310 312 312 311 312 313 312 313 313 313 313 314 314 314 314 313 313 313 314 315 313 313 314 312 315 320 322 323 319 318 318 316 319 320 321 325 324 322 321 322 324 322 318 315 309 313 321 319 316 315 314 314 310 308 308 308 309 309 309 311 312 312 312 312 313 312
311 311 311 311 311 311 311 310 310 309 308 307 307 307 308 308 310 312 310 310 310 309 309 309 311 311 312 312 312 313 313 314 314 314 314 313 314 313 312 314 316 317 314 311 315 317 318 321 321 316 310 312 315 313 317 319 320 325 323 318 321 322 321 320 318 315 312 313 321 322 318 315 314 314 311 308 309 310 311 312 312 313 311 311 312 312 312 312
311 311 310 310 310 311 310 310 310 309 308 308 307 307 308 308 310 312 312 312 312 311 310 310 310 310 311 312 312 313 313 314 315 314 314 313 313 313 311 315 318 319 316 316 320 320 320 323 318 309 308 316 318 313 315 318 318 323 322 320 324 322 320 322 320 317 315 313 318 322 318 315 315 315 314 311 310 311 312 313 312 312 312 312 312 312 312 312
310 310 310 311 310 310 310 310 310 310 309 308 308 307 308 309 309 310 310 310 312 312 310 311 311 309 310 311 311 313 313 313 314 313 314 313 313 313 312 313 317 319 317 317 319 318 320 319 310 307 311 320 321 315 316 318 319 322 321 321 324 323 321 321 320 319 319 316 316 320 321 321 321 319 319 314 310 311 311 312 313 313 313 312 311 311 311 311
309 309 310 310 310 310 310 310 310 310 309 309 308 307 308 308 309 310 310 310 311 312 310 310 311 311 310 310 311 313 313 313 313 314 314 313 313 313 312 312 314 318 317 316 315 316 318 312 309 313 314 319 322 319 321 321 322 324 322 320 321 322 321 319 320 320 323 325 318 315 322 331 330 326 325 323 321 321 314 309 311 314 313 311 311 310 310 310
310 308 308 308 309 310 309 309 310 310 309 309 309 308 307 308 309 309 311 313 313 311 311 311 312 312 311 311 312 312 313 314 313 314 314 313 313 313 313 312 312 315 315 314 314 315 315 310 313 321 317 317 318 319 323 321 320 324 321 318 317 316 317 317 319 320 325 328 316 313 323 328 325 324 326 328 330 329 318 310 311 313 313 312 312 312 311 310
314 311 309 308 308 308 308 308 309 309 309 309 309 308 308 309 310 308 310 315 313 311 314 313 311 313 311 311 312 312 314 314 312 314 314 313 313 312 315 314 311 312 311 312 315 314 314 313 315 320 320 319 318 320 322 317 321 326 318 316 317 316 318 319 319 320 323 323 317 318 325 323 321 323 325 324 324 324 322 320 315 312 313 314 314 314 312 312
317 315 313 311 309 308 308 308 309 309 308 309 309 308 308 309 310 310 312 313 312 311 314 312 311 312 311 311 312 311 312 313 313 315 314 313 314 312 314 314 314 315 310 312 317 313 313 318 317 317 320 320 320 323 320 316 321 323 313 314 317 317 321 322 323 323 321 321 321 320 320 322 326 327 323 319 320 324 326 326 319 312 313 314 314 314 313 312
319 317 316 315 313 311 308 307 308 308 308 309 308 308 309 309 310 311 312 311 311 312 313 312 312 311 311 311 311 311 310 311 313 314 313 313 313 313 314 312 311 314 310 310 317 313 311 315 313 315 319 319 321 318 313 316 320 314 309 314 317 318 321 323 326 326 323 323 324 322 321 322 324 326 324 319 322 327 324 322 317 311 313 315 313 313 312 311
319 318 317 316 315 313 309 308 308 307 308 309 308 308 309 310 310 309 309 311 312 313 310 311 313 311 312 312 311 311 311 311 312 312 312 312 313 312 313 312 310 316 315 312 316 315 311 310 310 313 315 315 316 312 308 314 314 310 315 322 322 323 323 324 325 323 323 326 324 323 322 321 322 326 327 323 324 325 322 325 322 312 312 315 313 313 312 311
320 319 318 317 317 315 312 310 309 308 308 308 308 309 310 313 313 310 309 310 311 314 311 312 313 311 312 312 312 312 312 311 311 312 313 313 313 313 312 312 313 318 319 315 317 316 313 314 313 313 312 310 315 315 310 309 308 314 327 328 323 326 324 324 325 322 325 326 321 318 317 318 321 325 327 324 323 321 319 326 329 317 313 314 313 313 312 311
320 319 318 319 319 318 315 313 311 309 308 308 310 310 310 313 312 311 311 311 311 315 315 315 314 312 312 313 313 313 314 314 311 312 315 314 314 314 313 315 315 317 318 316 317 316 316 319 315 311 311 312 319 322 315 311 312 319 328 325 323 326 324 324 325 322 324 321 314 313 316 317 319 321 322 322 323 324 316 315 319 315 312 314 313 313 312 311
320 320 319 319 319 319 318 315 313 309 308 310 311 312 314 314 311 311 312 312 313 314 315 317 315 313 313 313 314 312 313 315 313 312 314 314 315 314 314 317 315 317 320 316 315 317 318 318 314 314 314 313 318 321 319 318 317 319 323 324 325 325 326 332 328 320 320 319 313 311 316 319 320 321 320 319 319 319 313 309 312 312 312 313 312 312 312 311
321 320 320 319 319 320 319 316 313 310 310 312 312 313 315 313 311 311 311 311 315 315 316 317 314 312 313 314 315 313 313 315 313 313 314 314 316 315 315 316 313 319 324 317 315 317 318 317 316 316 315 315 316 316 320 322 317 318 321 321 323 326 329 335 331 325 323 322 316 312 317 324 326 324 319 313 310 311 313 312 311 311 312 311 310 310 311 311
320 320 320 320 319 320 319 317 313 310 311 314 313 312 312 311 310 312 311 311 319 319 316 315 313 313 314 315 316 313 313 314 313 314 315 315 316 315 315 315 313 318 322 316 316 317 315 318 319 314 311 314 316 313 316 319 317 317 318 319 321 324 326 323 320 320 320 321 320 316 319 324 324 322 316 310 310 310 310 310 310 312 311 309 309 309 310 311
318 319 319 319 319 319 320 317 313 311 312 314 313 312 311 312 312 314 312 313 319 319 315 315 316 316 315 315 316 313 312 315 314 315 316 315 316 315 314 314 313 314 314 313 319 319 316 318 316 312 312 312 312 312 312 314 317 317 316 321 318 315 324 324 315 311 312 318 322 319 321 323 321 321 318 315 318 317 312 309 309 310 310 308 309 309 310 311
315 317 318 317 318 319 320 318 313 311 312 312 312 312 312 314 315 316 314 313 315 316 316 317 317 317 315 315 317 315 314 316 315 315 316 315 316 316 315 315 313 312 312 313 318 320 319 320 315 313 316 311 307 310 310 308 314 319 320 321 315 312 322 325 320 319 319 322 324 321 321 323 321 322 319 315 317 319 319 316 310 307 307 308 309 309 310 311
313 316 317 317 318 317 318 318 314 312 312 312 312 313 313 314 314 314 313 313 314 315 317 316 315 316 317 316 317 316 314 316 315 315 316 315 315 316 314 315 314 311 311 312 315 318 317 318 316 311 314 312 308 312 315 309 310 316 319 316 317 321 323 321 321 326 325 324 326 323 319 319 319 321 321 318 320 322 321 318 315 311 308 307 308 309 309 310
311 314 316 317 318 317 318 318 314 313 312 311 312 314 314 314 312 313 314 314 315 315 315 315 315 317 317 316 317 316 314 316 315 314 316 315 315 315 313 314 315 311 310 311 314 318 317 316 318 311 310 313 313 315 319 316 310 312 313 312 317 322 322 320 320 322 324 324 326 325 321 320 320 321 323 321 323 327 323 320 320 314 310 310 310 310 310 310
310 314 316 317 317 318 317 316 314 313 313 311 311 313 315 314 312 313 314 314 314 315 314 317 318 319 318 315 316 317 315 315 314 314 316 315 315 316 312 313 316 313 310 310 313 318 317 314 318 314 309 313 318 318 318 318 315 315 317 316 317 317 317 320 319 318 323 326 326 326 323 322 323 321 324 321 321 324 324 325 322 311 309 313 313 312 312 311
310 313 316 316 316 316 316 314 314 314 312 310 310 311 312 313 313 313 313 312 314 315 315 319 320 318 318 316 316 317 316 316 315 315 316 315 315 317 314 312 315 314 312 311 313 316 316 316 320 319 315 316 320 316 312 315 316 316 317 317 317 316 317 320 318 316 319 321 324 325 322 323 325 320 321 323 321 318 315 316 315 311 311 314 314 313 312 311
312 313 315 315 315 315 314 314 314 313 310 309 310 309 310 312 313 313 312 311 313 314 315 319 319 317 318 316 316 317 316 317 315 315 317 316 314 317 315 311 312 312 312 314 315 314 315 319 322 321 318 317 316 309 304 308 313 314 316 318 317 316 318 321 321 319 319 317 317 319 320 322 321 318 319 319 314 310 309 308 309 312 315 314 313 313 311 311
312 313 314 314 315 315 314 313 312 312 309 309 310 309 310 312 313 313 313 312 313 314 315 318 318 316 316 317 317 317 317 317 315 315 318 317 315 315 313 311 311 312 313 317 317 314 314 318 319 320 320 317 314 309 304 306 311 313 316 317 317 316 317 320 320 319 321 321 318 318 321 320 316 316 312 307 304 305 307 309 309 312 316 314 312 313 312 310
311 312 312 314 314 315 314 312 311 310 309 309 310 310 310 311 312 313 314 313 313 314 316 317 317 315 316 319 318 316 316 317 316 315 316 317 316 313 311 311 312 313 313 316 317 314 315 319 318 319 321 318 317 316 312 311 313 316 318 317 316 316 316 317 317 317 320 322 320 320 322 318 317 317 310 306 309 308 306 308 310 311 314 314 313 314 314 312
311 311 311 312 314 314 314 312 310 310 309 308 309 310 310 311 311 312 313 313 313 314 315 316 316 315 316 317 316 316 316 317 318 316 315 317 316 311 309 311 312 312 313 314 314 313 317 320 317 316 319 318 318 319 318 315 314 316 319 316 314 315 317 317 318 318 318 319 318 319 321 319 319 319 315 314 318 316 310 309 310 310 312 313 314 316 315 312
310 311 311 312 313 314 314 312 310 309 309 308 309 309 310 311 311 311 312 313 313 313 314 315 316 316 318 317 316 317 317 316 318 318 316 318 318 312 309 310 311 312 312 313 312 315 322 322 316 316 318 317 317 319 319 317 316 317 318 316 314 314 315 316 317 318 319 319 318 318 318 320 320 320 319 319 319 321 318 311 309 311 313 313 315 316 315 313
310 310 311 312 313 313 312 313 312 310 309 309 309 309 310 311 312 312 312 313 314 313 313 315 316 316 318 318 318 319 318 316 317 318 316 317 317 313 309 309 310 311 312 313 312 317 323 321 317 318 317 316 318 319 318 318 319 319 317 316 315 314 314 316 317 318 319 320 320 318 317 319 319 319 322 323 322 324 321 311 309 313 314 314 315 315 314 313
310 310 310 311 313 313 312 313 313 312 310 310 309 309 309 310 311 312 313 312 313 314 314 315 316 316 317 317 318 319 319 318 318 317 317 317 317 315 313 311 310 310 312 313 312 316 322 320 318 320 318 317 317 318 318 319 318 318 317 317 316 314 314 315 316 317 318 319 319 320 320 320 318 316 319 321 319 319 317 313 313 314 313 313 315 314 314 314
308 309 310 310 311 312 312 313 313 313 312 310 309 308 309 310 310 311 313 313 313 314 315 315 315 315 316 316 317 318 318 318 319 318 317 317 318 318 318 316 312 309 311 313 312 313 319 319 318 319 318 318 318 317 319 319 317 316 317 316 316 315 314 314 315 315 317 318 318 319 321 320 318 317 318 316 315 315 313 313 313 314 313 314 314 314 314 314
306 308 309 309 310 309 310 312 312 313 312 311 310 309 309 310 310 310 312 313 313 314 314 315 315 314 316 316 316 317 317 317 319 319 317 317 317 317 318 318 316 311 310 313 314 312 314 318 319 317 318 319 318 317 318 318 316 317 318 316 315 314 314 314 315 315 315 316 317 317 319 318 315 316 316 314 314 314 313 312 312 313 314 313 313 313 314 315
305 306 306 307 308 309 309 310 311 313 313 312 311 311 310 310 310 310 311 312 313 313 314 314 315 315 315 315 316 317 316 316 317 317 316 316 315 315 315 314 315 315 312 312 315 314 313 317 318 318 318 318 318 318 317 314 314 315 317 317 315 314 314 313 314 315 315 316 316 316 318 318 316 316 315 313 313 312 312 312 312 312 314 313 313 314 315 315
304 305 305 304 306 308 309 310 311 312 313 312 311 311 311 311 310 310 311 312 312 313 313 313 314 315 316 316 316 316 315 316 316 315 315 315 314 314 314 311 312 316 315 312 314 314 314 316 316 317 318 318 318 319 317 314 315 317 317 316 315 314 314 314 314 314 314 315 317 317 317 316 317 319 318 317 316 313 311 312 313 313 313 313 313 314 315 315
Wind_Speed
23 22 22 20 19 18 17 16 15 14 13 13 12 11 10 9 9 9 9 10 10 11 10 9 9 9 8 5 4 3 2 3 3 3 4 4 5 6 6 4 3 2 1 1 1 2 2 2 1 1 3 4 5 6 7 6 5 4 4 4 3 4 4 6 7 7 4 3 7 9 9 6 4 5 5 3 4 6 8 9 9 10 12 10 10 9 10 15
23 22 21 20 20 18 17 16 15 14 13 12 11 11 10 9 9 9 10 10 11 11 10 10 10 9 7 5 4 2 2 3 4 4 6 7 8 8 6 3 1 1 2 2 2 1 2 2 1 2 3 5 6 5 5 5 5 4 4 4 3 6 4 6 8 10 3 1 8 9 8 7 5 7 7 3 2 5 5 7 9 10 11 11 11 11 11 14
22 21 21 20 19 18 17 16 15 14 13 12 12 11 10 10 10 10 11 11 11 11 10 10 10 9 7 5 3 2 1 2 3 6 8 10 9 8 4 2 3 4 4 3 2 0 2 2 3 4 6 7 6 5 5 6 5 2 4 3 4 6 3 4 7 11 5 2 10 9 8 7 5 8 7 4 2 3 6 9 10 11 13 12 12 12 12 14
23 22 21 20 19 18 17 16 15 14 14 13 12 12 11 10 10 11 11 12 11 11 11 10 11 10 7 6 3 2 1 0 4 8 10 10 8 6 3 3 4 5 4 2 1 2 3 3 4 5 7 6 6 6 5 7 4 2 4 3 5 5 2 3 6 8 7 4 9 9 7 6 6 9 8 6 3 4 11 14 14 12 11 11 13 13 13 14
23 22 21 20 19 18 17 16 15 15 14 13 13 12 12 11 11 11 12 11 11 11 11 11 11 10 7 6 4 4 3 2 5 9 9 9 7 4 3 3 3 2 2 0 2 3 3 3 4 5 6 4 6 5 4 7 5 4 2 2 5 5 2 3 5 7 8 7 9 8 7 5 7 9 9 9 6 6 9 10 12 12 11 11 12 14 14 15
23 22 22 21 20 19 17 16 16 15 15 14 13 13 12 12 12 12 12 12 11 10 11 12 11 10 8 7 4 5 5 1 7 11 8 8 5 3 1 1 1 1 0 2 3 3 3 4 4 4 5 4 4 4 4 5 3 3 2 1 6 3 1 3 5 7 9 9 9 7 5 5 6 6 8 13 14 13 9 8 8 10 12 13 12 14 15 15
23 22 22 21 20 19 18 17 16 15 15 14 13 13 12 12 12 12 12 12 11 11 12 12 11 10 8 7 5 6 6 3 7 11 7 7 4 2 1 1 2 2 2 2 2 3 2 3 5 6 6 4 2 3 5 6 4 5 2 1 5 2 2 3 5 7 8 6 6 6 5 5 6 5 6 13 19 18 16 14 12 11 11 13 13 14 15 15
23 22 22 21 20 19 18 17 16 15 15 14 13 13 13 13 13 12 12 12 11 11 12 12 11 10 8 7 5 5 7 4 8 11 7 6 5 3 2 1 2 3 4 3 3 3 2 3 6 6 5 3 3 2 3 5 6 5 3 2 3 1 1 4 6 6 6 4 4 5 5 5 7 6 7 14 17 16 18 17 15 13 11 13 14 15 15 15
23 22 22 20 20 18 17 16 16 15 15 14 14 13 13 13 13 12 12 12 12 12 12 12 11 10 8 7 5 3 5 5 9 12 8 5 5 4 2 2 3 3 4 4 3 2 2 4 6 4 3 4 5 3 4 3 2 2 4 4 2 1 0 4 7 6 6 5 4 5 5 5 6 5 10 18 18 15 17 16 16 13 12 13 14 15 15 15
23 22 21 20 19 18 17 16 16 15 15 14 14 14 14 13 13 12 12 12 12 12 12 11 11 10 8 7 5 3 4 5 9 14 10 6 5 4 2 2 2 3 3 3 4 3 3 5 5 6 6 6 6 4 5 4 2 3 5 4 2 0 1 3 7 6 6 6 6 6 4 5 4 2 7 14 14 16 16 14 15 13 13 14 15 16 15 15
23 22 21 20 19 18 18 17 16 16 15 15 14 14 14 13 13 12 12 12 12 12 12 11 10 9 8 7 7 4 2 5 8 13 13 8 6 5 3 2 2 2 2 3 3 5 5 5 6 6 4 5 5 4 5 5 5 4 3 2 2 3 3 4 5 6 6 4 7 8 3 3 2 3 11 13 11 13 15 14 15 15 15 15 16 16 16 16
24 23 22 21 20 19 18 17 17 16 15 15 14 14 14 13 13 12 12 12 12 12 11 11 10 9 8 8 10 8 3 4 7 13 15 10 7 6 3 2 1 1 2 3 3 4 5 5 4 2 3 7 4 3 5 4 4 5 5 1 5 8 3 3 2 5 6 2 4 6 2 4 4 9 15 12 11 13 13 15 16 16 17 17 17 17 17 17
23 23 21 21 20 19 18 17 17 16 16 15 14 14 14 13 13 12 12 12 11 11 10 10 9 9 8 7 9 10 8 7 7 11 15 12 9 8 4 2 1 1 2 2 3 3 3 3 3 4 7 7 3 4 5 4 3 2 4 2 3 8 5 2 1 3 6 2 3 7 3 6 7 14 14 9 12 14 15 17 18 18 19 19 19 19 19 19
21 21 20 20 19 18 18 17 16 15 15 14 14 14 13 13 12 11 11 11 10 9 9 9 8 9 8 7 8 9 10 9 8 11 15 14 10 9 6 3 2 2 2 1 2 2 2 3 3 5 7 5 6 7 4 5 5 1 2 2 3 2 4 5 1 5 6 3 5 7 2 7 8 10 9 11 13 15 17 18 19 20 20 21 21 21 21 20
18 19 19 18 18 18 17 16 16 14 14 14 14 13 12 12 11 11 10 9 9 9 9 8 8 7 6 7 8 9 10 11 10 11 14 15 12 10 8 4 3 3 2 2 2 2 1 2 3 5 6 7 7 6 3 4 4 3 1 3 3 1 5 8 1 7 4 2 6 6 2 7 9 9 6 11 14 15 18 18 19 21 21 22 22 22 22 21
16 17 18 17 18 18 17 17 16 15 15 14 14 13 12 11 10 10 9 9 9 9 8 7 8 7 4 5 7 8 11 13 12 12 14 14 12 11 9 5 4 3 3 3 2 2 1 2 5 6 5 5 5 4 4 4 4 4 1 2 2 1 3 6 1 4 2 2 4 3 2 4 4 5 3 9 15 16 18 19 20 22 23 24 24 24 24 22
16 16 17 17 18 18 17 17 16 16 15 14 14 13 11 11 10 9 9 9 8 8 7 6 6 7 5 5 7 8 11 13 14 14 13 13 12 11 9 6 4 4 4 3 3 3 2 3 5 4 4 3 3 4 4 2 4 4 2 1 3 2 2 3 3 2 1 2 3 2 3 7 7 6 5 6 11 15 19 22 22 23 24 25 25 26 25 25
17 17 17 17 17 17 17 16 15 15 14 14 13 11 10 9 9 9 9 9 8 6 5 6 5 2 6 10 9 7 9 12 14 14 14 13 12 11 9 5 4 4 3 3 2 3 2 3 4 2 3 4 3 5 3 4 3 3 2 1 3 2 2 4 4 2 1 1 3 3 4 10 12 13 14 10 11 16 21 23 23 24 25 26 27 28 28 28
17 17 17 17 17 16 16 15 15 14 13 13 12 11 9 7 6 7 8 9 10 6 3 10 12 4 2 10 12 9 7 9 12 14 15 15 14 12 9 5 5 5 5 3 1 3 3 3 5 1 1 1 3 6 7 8 6 5 5 4 4 3 4 6 5 4 2 1 4 6 7 10 11 13 15 13 12 18 23 24 25 25 26 28 29 31 30 30
18 17 17 17 17 17 16 14 13 13 12 11 12 11 9 8 5 3 9 12 15 13 6 9 17 10 1 3 11 11 8 9 12 15 16 16 14 12 8 6 5 4 3 3 1 2 3 3 2 5 7 7 8 7 5 5 6 6 5 4 4 3 4 5 4 5 1 2 6 7 7 10 10 11 15 15 11 15 22 24 27 29 30 32 32 33 33 32
19 19 18 17 18 18 17 16 14 13 12 11 13 12 9 11 6 1 9 14 17 21 14 8 13 15 8 2 7 11 10 10 12 15 16 16 14 10 8 6 5 2 0 3 4 2 4 3 7 9 7 6 5 6 7 6 6 5 5 3 1 3 6 6 3 4 1 2 5 5 5 10 10 11 17 17 9 14 24 25 29 32 33 35 35 35 34 32
20 20 19 19 19 19 18 17 15 15 14 13 15 13 9 12 10 4 5 6 11 18 20 17 14 15 14 9 8 11 11 8 10 16 17 17 16 11 9 7 5 3 1 3 5 3 2 4 11 7 7 6 4 5 7 6 5 4 4 3 2 3 5 6 4 5 2 2 4 5 5 9 10 10 16 21 17 20 29 30 32 33 32 35 36 36 35 33
20 20 20 20 20 20 20 18 17 16 16 15 15 14 10 9 10 6 2 3 7 11 17 21 21 20 19 15 12 14 13 8 9 17 20 19 18 13 11 8 4 4 2 3 6 3 2 6 9 7 11 8 5 5 7 5 3 2 4 3 3 3 2 4 4 4 3 1 2 5 7 8 8 9 13 22 23 24 31 32 33 33 32 35 35 34 34 34
20 20 21 21 21 22 21 19 19 18 17 17 15 15 13 9 7 6 4 3 5 7 12 17 20 24 24 19 16 17 16 11 10 17 22 23 19 12 10 9 6 4 4 6 8 6 6 6 1 7 8 7 6 4 6 5 2 3 4 6 4 4 5 5 4 4 3 3 3 4 8 8 6 7 10 11 11 17 26 27 30 36 36 35 32 31 32 32
18 20 21 22 22 22 21 19 20 20 19 19 16 15 14 11 7 4 1 1 4 5 8 13 15 20 25 22 19 17 14 12 12 16 22 26 22 12 7 8 6 4 6 5 5 5 8 4 4 6 3 5 7 4 5 7 3 5 4 8 9 7 5 3 3 5 4 4 4 4 4 6 4 4 8 6 4 9 14 14 23 32 29 28 30 31 31 30
14 16 18 20 21 22 20 17 18 20 19 19 17 16 15 12 7 4 2 3 4 4 3 8 10 11 18 20 19 15 6 9 15 17 21 26 24 13 6 5 4 3 6 6 3 3 4 2 5 6 4 5 5 3 6 7 5 3 4 7 8 5 3 2 1 2 1 4 3 3 1 7 6 4 7 6 6 10 10 9 20 26 23 23 26 28 29 29
12 13 15 17 20 20 18 15 17 19 18 18 18 17 16 12 8 6 3 4 4 5 6 8 8 9 12 16 24 18 2 5 12 16 23 26 22 14 7 5 3 2 6 6 1 3 4 4 3 6 6 5 5 4 6 8 7 3 4 4 6 6 5 5 4 2 3 3 4 2 4 3 8 6 5 4 5 10 13 13 17 19 18 20 22 24 26 28
12 12 13 15 16 18 17 16 18 17 16 17 18 17 14 13 11 7 5 1 3 5 6 6 8 11 11 18 27 16 5 10 9 12 25 27 21 12 6 8 7 5 7 7 4 3 3 6 7 7 5 4 6 5 7 11 5 4 2 6 6 6 5 5 5 2 1 3 4 1 4 2 8 6 4 4 2 8 14 15 11 9 12 15 17 20 23 25
13 13 14 13 12 15 18 18 15 14 14 15 16 17 15 15 12 7 4 2 3 4 3 6 8 8 12 18 19 10 7 7 3 11 23 23 20 9 2 9 8 6 5 4 4 3 1 4 7 7 6 5 4 1 5 8 3 4 6 7 6 6 5 5 4 3 3 3 5 5 6 3 6 4 1 2 2 8 12 11 8 8 10 10 11 14 18 22
15 15 14 14 14 16 19 19 16 14 14 15 17 20 21 17 10 5 1 4 2 2 3 7 6 8 15 14 6 2 4 1 4 15 16 13 15 8 4 7 6 6 1 3 1 3 2 1 2 4 4 5 5 4 2 3 6 9 7 6 6 6 5 4 2 4 2 5 6 7 10 6 4 4 4 4 4 7 7 6 7 7 6 5 6 9 13 18
18 18 17 18 18 17 18 19 18 17 18 20 23 26 23 11 4 4 6 2 1 2 4 4 2 7 14 11 4 3 2 2 7 15 9 5 8 5 6 6 3 4 2 4 3 4 4 0 1 2 4 6 8 5 6 5 7 7 5 4 4 3 4 4 4 4 1 6 5 3 4 5 6 6 4 6 7 6 6 5 6 6 5 4 6 7 10 14
23 21 20 22 20 18 19 17 18 21 23 25 29 29 18 4 1 5 5 1 1 3 5 3 3 6 10 6 4 6 3 2 6 8 5 4 6 6 5 6 5 3 2 6 3 3 2 4 2 0 4 7 6 5 5 4 2 4 4 6 4 2 3 3 3 1 2 6 3 2 1 2 8 8 7 12 12 9 10 11 12 12 12 10 9 8 9 12
28 26 24 25 23 22 19 15 18 25 28 32 33 23 9 2 6 9 7 3 1 2 3 4 2 5 9 6 3 4 3 2 6 5 2 4 5 6 5 4 6 4 2 6 3 1 3 5 1 2 3 8 9 6 3 1 2 5 5 6 4 2 1 3 3 2 4 5 3 2 2 3 5 5 10 16 16 15 14 16 17 17 17 15 11 9 9 11
29 29 31 31 27 25 20 16 20 26 32 38 29 12 5 6 9 10 10 6 1 2 3 4 5 4 6 4 3 5 3 2 5 4 2 4 5 6 5 6 6 3 3 4 3 6 5 6 5 6 3 10 12 7 6 6 5 5 3 5 5 5 5 4 4 4 5 3 3 3 1 4 3 3 7 12 13 17 20 21 19 18 20 18 14 13 13 14
24 27 32 35 32 29 24 20 21 28 39 38 20 6 8 9 8 9 9 5 1 2 3 3 6 6 3 2 3 4 3 2 4 4 3 5 5 7 6 8 9 6 5 4 2 3 5 7 6 2 1 10 10 4 6 8 3 3 2 4 3 5 5 2 3 5 2 2 3 2 4 5 4 6 9 9 10 13 18 20 20 23 23 19 17 18 17 18
20 24 32 38 40 36 30 27 25 32 41 30 10 7 12 11 8 7 6 5 5 6 6 3 4 4 5 1 1 4 1 1 4 3 3 3 3 6 7 7 11 11 8 7 3 2 3 4 5 3 2 3 3 1 4 4 3 2 3 3 4 4 6 4 2 1 3 2 4 2 4 5 3 8 9 7 8 9 10 12 16 21 19 16 18 19 18 20
17 22 30 39 41 38 35 33 30 36 40 22 7 9 9 9 6 5 4 6 8 11 9 3 3 5 6 3 4 7 2 1 4 4 3 2 3 7 8 6 10 15 13 6 2 3 5 2 5 2 1 2 2 4 5 4 4 5 4 6 3 2 4 4 1 3 3 3 5 1 5 5 3 6 5 0 6 10 9 10 12 14 14 17 21 19 17 18
16 18 27 36 38 35 38 39 35 39 33 14 8 11 7 8 5 5 5 6 8 10 7 6 6 5 6 6 5 7 6 3 5 5 4 3 5 7 9 6 8 17 17 6 1 3 3 2 4 2 2 3 3 4 3 5 3 4 4 5 4 2 2 2 2 2 1 3 5 3 4 4 5 6 2 2 9 11 11 11 9 10 15 21 23 20 17 18
14 14 20 31 37 37 42 43 40 38 23 8 11 12 7 9 5 4 8 7 6 7 7 7 5 2 5 7 5 6 7 7 8 6 4 4 5 6 12 10 6 13 19 12 4 2 3 3 3 2 2 2 2 2 4 1 2 3 2 2 2 2 3 3 3 3 3 2 3 3 4 5 7 7 6 9 12 11 11 10 8 13 20 22 22 21 20 20
14 10 11 21 31 36 42 43 38 28 12 5 10 7 2 5 3 3 9 7 3 4 5 5 5 4 5 5 3 5 7 6 8 7 5 6 6 4 9 11 4 6 15 15 7 1 2 3 4 3 3 1 3 4 7 9 6 3 3 4 2 1 2 1 1 2 4 3 2 2 6 9 5 5 8 11 11 10 10 9 8 14 19 18 18 19 18 19
14 8 8 14 20 27 36 35 23 12 5 4 7 5 3 1 1 6 10 5 1 0 2 4 6 6 5 5 3 4 5 4 6 6 4 6 7 4 7 13 11 8 8 9 8 5 3 3 3 2 1 3 5 4 4 7 6 5 6 7 7 5 4 2 2 1 3 2 4 3 7 12 5 4 7 8 7 8 9 8 9 13 17 16 14 14 14 16
14 7 5 11 14 22 30 22 9 6 5 4 6 5 4 2 0 5 9 6 3 2 0 2 3 4 5 5 4 5 6 5 5 6 5 7 9 5 7 14 19 19 13 5 6 6 4 3 3 3 4 5 5 2 1 2 2 3 1 3 4 4 4 5 4 3 2 2 2 4 4 11 3 3 5 5 5 7 8 10 14 15 15 14 13 11 11 13
15 9 5 9 14 23 24 11 5 7 4 3 6 7 6 4 1 3 6 8 5 1 2 2 1 4 4 3 5 7 8 6 7 9 7 6 8 7 8 14 18 17 11 2 1 4 4 2 3 2 2 2 3 3 3 2 3 3 1 1 5 6 6 5 4 3 3 4 3 3 5 10 2 1 3 4 6 9 9 14 17 18 15 12 12 10 10 11
15 12 7 7 14 23 18 5 4 7 4 4 7 9 10 7 5 6 7 9 8 3 2 2 2 3 3 3 5 8 10 7 8 11 9 4 6 7 11 18 17 12 7 3 4 10 8 3 4 2 2 3 3 3 1 2 1 2 3 4 7 10 7 2 1 3 2 8 9 6 9 9 2 2 4 3 4 8 12 15 18 18 16 12 10 9 11 12
10 8 9 13 21 27 18 8 8 6 4 6 5 8 11 8 9 13 8 7 9 6 3 3 3 2 2 3 4 6 10 10 7 8 8 4 2 3 9 20 21 15 11 5 7 12 8 3 6 7 6 8 7 6 4 3 2 2 4 8 9 10 11 6 2 3 7 9 8 8 13 7 3 4 5 4 4 7 12 16 17 18 17 13 9 10 13 14
10 5 5 12 25 30 21 17 17 8 5 7 3 5 12 9 7 13 11 6 8 10 6 3 2 2 1 3 4 5 8 9 5 3 5 5 3 1 5 16 22 20 15 8 10 11 3 2 8 10 11 14 13 8 5 7 7 6 9 11 12 13 14 9 5 7 8 3 4 14 17 11 8 6 5 6 6 6 10 12 15 17 18 14 11 12 14 15
11 6 6 8 15 18 14 14 16 10 8 11 5 3 12 12 4 6 12 11 10 12 8 2 3 6 5 6 6 5 5 6 5 4 4 5 2 2 1 8 14 17 13 10 13 11 3 2 9 11 13 15 15 10 8 10 11 13 14 14 14 14 13 12 13 14 8 4 10 18 11 11 17 10 6 9 8 7 10 13 16 17 17 14 13 14 16 15
8 7 14 15 8 6 8 12 14 11 11 11 5 1 7 12 8 6 11 12 10 11 7 3 8 12 12 11 8 4 5 4 5 7 5 3 2 1 1 2 6 11 8 7 10 8 3 5 9 10 12 15 16 9 8 9 8 9 13 15 16 16 17 18 23 20 11 8 19 15 9 13 23 14 11 11 9 11 16 18 19 17 15 15 15 16 18 18
9 6 12 20 12 6 12 19 18 13 11 9 6 4 5 9 12 10 6 4 5 10 11 8 13 16 14 12 8 6 7 6 7 8 6 5 5 3 3 3 4 7 6 4 4 3 3 7 9 7 8 15 18 10 7 9 5 3 9 13 15 18 23 25 25 22 16 17 23 16 8 17 20 10 10 15 20 24 21 17 18 20 21 21 19 20 22 22
10 6 4 11 13 9 10 15 14 11 10 10 8 8 8 10 13 11 7 7 7 8 12 15 17 14 13 13 10 10 11 11 13 12 8 8 7 4 5 4 2 3 5 4 2 1 4 7 6 5 5 13 18 11 5 7 7 6 8 11 14 19 23 23 20 17 15 19 23 16 14 21 14 6 10 19 27 26 20 17 21 25 26 25 23 25 26 26
16 14 9 4 5 7 7 8 9 8 9 9 9 9 9 12 15 11 8 12 12 8 10 18 20 11 9 12 12 14 18 17 14 10 5 8 8 4 5 4 5 4 4 4 2 2 3 3 1 4 5 13 17 12 6 5 3 6 11 15 20 20 15 14 15 15 15 18 19 14 14 20 9 8 11 17 20 18 18 21 24 25 28 28 28 29 29 30
16 17 16 8 3 4 5 5 7 8 7 9 12 13 12 14 15 11 6 10 17 19 18 20 17 8 6 9 14 22 28 24 18 12 6 7 7 3 4 6 8 7 6 4 1 2 5 4 2 4 7 12 12 7 7 5 1 8 15 22 23 16 9 10 14 17 18 17 14 12 17 21 10 6 8 10 10 13 19 25 29 30 31 31 31 31 31 32
Wind_Direction
203 201 196 194 193 192 192 193 193 194 194 194 196 198 199 202 203 203 199 194 189 187 187 190 191 186 186 201 218 244 254 259 258 227 201 186 176 161 151 143 134 111 75 285 239 233 233 222 222 127 129 110 81 77 79 76 80 89 101 88 136 171 195 186 178 188 166 196 198 181 180 166 174 181 161 147 159 178 188 201 212 216 223 239 236 226 218 209
206 203 199 197 195 195 195 197 198 198 199 200 201 203 205 207 206 206 199 194 191 190 191 193 192 187 189 201 215 241 256 269 256 212 186 171 165 160 158 161 164 316 330 313 278 239 194 184 135 120 122 98 66 68 81 56 55 75 104 93 181 196 204 182 176 188 175 151 178 171 182 180 184 182 171 189 201 181 199 220 221 223 225 228 222 218 220 214
209 206 202 200 199 199 200 202 203 202 204 205 207 208 210 211 209 207 200 195 193 193 194 195 193 189 191 199 208 221 251 280 223 185 175 168 166 167 179 226 277 294 298 293 260 179 167 147 102 109 105 87 59 70 70 39 43 60 92 91 216 211 211 197 192 195 202 184 165 164 182 189 196 188 186 207 203 199 222 223 217 223 227 224 218 219 221 218
210 208 204 204 204 204 206 207 207 206 208 209 210 212 214 214 211 206 199 196 195 196 196 195 192 190 193 193 196 199 195 317 175 167 168 169 169 182 227 274 291 294 284 281 194 133 149 137 111 106 94 76 46 65 49 26 37 52 92 138 201 181 168 203 201 199 205 184 165 163 167 190 202 194 201 189 164 251 240 230 229 236 241 235 227 223 222 221
209 208 206 206 208 209 210 210 210 210 211 212 214 216 216 214 210 203 198 197 197 197 197 195 192 192 193 189 193 187 145 82 174 170 165 171 175 205 256 289 295 298 261 195 121 131 136 135 128 105 81 60 33 56 30 22 66 69 35 205 156 136 130 180 182 187 191 175 164 158 154 192 196 197 215 198 198 244 242 239 241 248 250 248 240 231 224 223
210 209 209 210 211 212 213 212 212 212 213 216 218 219 216 211 206 201 198 197 197 198 196 192 191 194 194 190 195 187 170 98 178 172 166 175 183 215 242 313 344 8 322 106 111 129 131 140 135 101 74 56 31 57 41 18 73 90 10 188 147 131 83 164 175 171 173 169 170 171 177 198 188 209 232 220 229 242 249 253 254 260 251 243 242 235 229 227
211 211 212 212 212 213 213 214 214 216 217 219 220 219 214 208 202 199 199 198 198 198 194 191 193 196 195 196 199 200 214 251 181 173 166 176 186 194 177 43 54 42 46 78 95 126 129 152 134 103 84 72 61 76 48 36 69 99 91 164 171 223 335 177 179 167 168 177 189 193 202 214 207 222 246 237 242 247 254 261 264 270 253 238 233 229 229 229
210 212 213 213 213 214 214 215 216 217 219 218 217 214 209 204 200 199 199 199 198 195 193 193 194 195 197 203 210 221 234 242 190 180 167 170 182 175 156 74 77 59 57 66 92 124 113 137 135 113 86 79 115 109 51 59 52 64 132 180 170 213 289 190 188 186 190 207 221 218 220 231 230 236 260 253 251 249 252 259 264 264 249 235 228 226 227 228
208 210 212 212 213 214 214 216 216 215 214 211 209 206 204 202 200 199 198 198 196 194 194 195 197 198 201 208 215 237 236 223 196 192 183 174 182 174 150 97 92 76 68 70 86 120 124 128 133 130 128 123 113 83 57 80 26 48 137 154 141 112 20 190 202 210 213 228 232 224 236 249 240 252 268 258 252 249 248 251 255 252 241 229 223 224 227 229
205 207 209 210 211 212 211 210 209 208 205 204 203 201 201 200 200 198 196 196 194 195 195 196 200 201 207 212 211 226 231 218 201 199 198 191 192 189 159 109 90 83 75 64 61 74 105 111 113 118 121 121 108 69 46 76 124 103 115 131 122 179 275 217 219 226 223 233 225 212 241 265 233 214 260 255 247 244 242 240 241 238 231 225 222 223 225 230
200 203 204 206 206 206 205 203 201 200 199 199 198 198 199 197 196 195 194 194 194 196 196 198 203 207 214 215 209 209 229 223 208 202 204 205 206 202 176 129 92 94 89 77 73 79 95 97 107 117 109 120 110 71 61 81 109 89 84 144 352 341 272 235 228 228 214 227 229 214 246 283 182 191 243 250 244 239 234 231 230 226 225 223 222 224 225 231
197 198 198 199 199 199 200 199 197 196 196 195 195 196 195 194 194 193 194 194 195 196 198 201 206 212 218 225 228 232 254 249 217 205 206 209 213 208 191 153 110 106 111 100 96 86 93 96 98 104 116 135 129 73 86 86 97 77 63 150 322 357 340 244 235 215 190 211 226 189 273 285 211 225 240 244 237 230 225 226 227 223 225 225 226 229 231 236
194 194 193 194 195 195 195 195 195 193 192 192 192 193 193 192 192 193 195 194 196 198 201 206 210 217 224 235 242 241 247 254 230 209 207 210 215 211 198 183 177 142 144 130 116 104 100 88 77 111 120 126 126 114 117 73 78 79 51 74 339 1 341 287 23 173 176 202 172 151 262 276 245 245 238 233 231 223 220 223 226 226 227 229 231 235 237 240
192 192 191 191 193 193 192 192 192 190 190 190 191 192 193 192 191 192 194 194 197 200 205 210 215 222 229 241 251 245 240 240 229 211 207 210 214 210 203 199 201 180 175 162 139 132 96 72 83 114 110 103 118 121 97 28 45 34 4 35 32 13 281 296 358 148 155 208 175 147 250 266 268 270 235 225 230 221 224 226 227 229 230 233 236 238 241 242
192 191 189 189 191 191 191 190 189 187 188 189 190 192 191 192 192 191 193 197 200 205 211 215 219 222 234 246 246 243 233 228 224 211 205 208 212 210 206 206 207 197 191 187 177 171 102 100 105 100 95 104 118 106 30 6 22 27 12 315 353 136 268 307 272 163 148 190 167 145 254 268 272 286 247 223 223 219 228 232 231 233 233 235 238 240 243 243
195 193 190 190 191 192 191 190 189 188 189 190 191 193 192 194 195 195 198 202 204 209 211 214 217 213 231 248 235 238 230 222 218 210 206 206 208 208 205 213 217 204 198 198 200 183 169 132 101 84 91 111 110 84 46 21 351 0 58 239 274 161 278 319 295 195 168 124 173 180 245 275 280 307 289 215 216 219 227 236 237 238 238 238 240 242 243 243
199 199 197 194 195 196 194 193 192 191 192 194 193 195 195 197 199 201 202 203 205 207 206 207 209 213 240 244 229 235 228 219 216 211 208 205 205 206 206 213 207 204 204 194 195 178 167 133 110 87 67 70 81 85 61 353 308 321 16 217 235 206 221 299 313 267 129 118 214 219 229 255 264 289 296 224 218 220 228 241 242 241 241 240 241 242 243 243
203 203 203 202 202 201 198 198 196 194 194 194 193 194 195 197 200 203 203 201 193 182 197 199 173 184 243 231 221 226 222 217 214 210 207 204 204 204 206 209 197 201 184 161 174 150 126 90 94 74 31 27 45 94 119 226 209 205 183 164 249 241 218 251 282 262 141 116 230 217 245 260 267 276 273 257 234 228 237 247 247 245 245 244 243 243 243 244
210 209 209 209 209 207 205 202 199 198 195 192 192 188 186 185 186 199 203 197 181 158 187 201 183 154 223 217 214 216 214 207 206 205 204 202 202 202 200 196 189 178 146 139 145 106 103 71 74 77 236 221 197 160 182 200 165 159 172 151 172 215 250 238 249 262 198 177 238 226 238 254 264 273 271 262 240 235 247 253 250 248 247 246 245 244 244 245
216 216 216 216 216 214 212 208 205 203 196 196 193 182 174 162 145 200 206 202 202 198 205 201 196 200 173 189 205 208 201 193 198 200 198 200 201 197 187 175 164 142 127 149 169 90 86 87 153 218 213 206 205 182 161 152 123 114 126 128 161 199 270 255 254 295 211 174 251 238 238 256 261 268 274 270 245 234 246 251 250 249 248 247 245 245 245 245
218 219 220 222 222 221 219 213 211 207 203 203 195 183 179 174 158 212 205 212 222 218 224 222 205 213 230 239 198 196 189 184 193 196 195 198 194 188 182 165 134 121 250 122 114 71 87 137 228 228 205 193 191 151 120 103 92 92 122 140 224 211 255 255 246 313 356 172 266 281 268 263 258 263 273 271 247 233 242 246 250 251 249 249 247 247 246 245
222 222 221 224 226 227 225 219 216 213 209 209 201 194 198 198 195 193 191 226 242 231 233 236 227 223 228 234 213 195 186 174 187 193 192 189 187 187 178 153 130 159 210 95 98 38 63 224 246 219 141 107 82 110 118 108 92 82 112 132 263 247 267 282 304 337 8 183 271 324 305 266 256 257 264 259 246 245 249 248 252 254 251 250 249 248 246 244
226 226 224 226 228 230 230 226 222 219 215 213 210 205 208 213 207 213 250 306 273 249 239 237 238 233 227 227 223 204 194 186 186 189 189 187 185 186 173 151 130 138 144 164 156 131 160 249 254 183 140 109 67 88 109 102 98 119 134 146 242 256 269 286 302 332 12 129 277 317 300 273 256 249 254 254 249 254 257 256 257 258 255 254 254 254 250 245
229 229 229 229 230 231 231 230 227 224 221 220 219 214 217 224 218 231 266 308 295 262 244 240 238 236 230 228 226 212 203 206 200 190 191 188 178 175 177 160 124 128 184 192 169 174 219 252 238 137 145 127 105 114 127 135 226 249 182 175 214 225 217 238 292 324 344 12 20 349 303 281 256 247 255 265 263 261 261 259 259 257 255 256 255 254 252 248
228 228 231 229 231 233 232 232 229 226 224 223 221 217 220 224 222 238 259 346 307 271 251 240 234 238 232 226 223 209 204 218 216 201 196 192 181 165 162 159 142 179 205 172 149 214 249 240 124 112 114 120 124 160 182 168 203 285 230 202 213 210 213 251 354 8 3 336 345 22 315 286 288 261 260 286 309 268 262 256 256 257 256 253 251 250 249 247
222 225 226 227 230 232 230 230 228 226 224 222 219 214 215 213 203 208 140 50 298 254 214 211 217 229 220 213 202 187 206 237 217 206 196 194 191 172 145 149 139 194 186 146 144 233 241 193 116 118 132 136 139 209 225 175 143 299 255 210 209 183 168 209 94 52 312 266 293 58 80 281 294 250 243 274 293 279 278 265 259 261 259 254 252 250 247 245
216 217 215 221 227 227 224 224 225 222 216 217 216 208 205 195 179 183 132 26 285 198 155 180 186 192 201 196 183 175 202 201 187 198 192 189 193 182 169 165 121 182 162 131 207 248 175 158 103 114 119 128 157 224 227 161 134 245 251 158 157 156 173 185 147 166 239 266 309 52 115 271 285 256 251 295 302 289 283 269 262 261 260 259 257 254 248 245
214 215 213 214 220 221 217 221 227 221 213 216 210 198 189 176 167 153 119 340 259 148 147 177 170 179 183 179 180 176 139 144 149 191 187 184 190 183 188 192 168 179 170 149 210 256 157 178 188 160 134 160 191 225 193 153 140 249 207 116 131 144 150 131 118 150 355 356 300 254 127 231 273 264 298 341 287 267 267 261 261 262 260 262 259 254 249 244
217 217 219 214 213 211 208 214 219 214 211 209 194 183 169 159 156 119 88 230 198 117 141 163 156 168 157 162 181 174 133 144 122 175 178 181 188 180 183 196 169 149 179 180 205 243 122 193 197 163 157 198 204 283 186 164 165 184 130 93 82 79 81 84 97 107 52 330 252 198 160 218 270 248 230 2 229 241 258 263 270 271 260 259 260 253 247 241
223 220 220 217 213 204 202 205 202 196 193 184 174 166 156 151 143 109 146 230 197 109 117 146 159 161 149 151 191 196 131 125 110 146 162 177 184 173 117 161 144 113 163 313 240 242 324 82 183 168 174 174 131 69 39 113 139 140 113 70 56 37 39 53 46 77 67 282 254 202 185 193 269 264 198 207 222 225 251 283 292 278 251 253 275 262 246 239
224 222 221 221 218 209 204 200 192 185 175 167 162 156 150 141 102 146 196 229 15 130 115 135 167 150 154 155 182 191 122 45 140 147 154 165 171 159 117 137 124 84 3 295 275 308 335 62 222 202 169 130 104 67 33 64 123 121 87 83 74 352 9 25 356 48 111 254 266 251 202 185 238 259 238 249 260 238 229 252 275 269 242 263 295 277 250 238
220 219 222 225 222 214 209 201 188 179 168 160 158 154 147 122 57 211 215 67 45 200 148 163 202 161 165 162 163 173 128 93 173 162 155 152 165 181 175 179 165 112 269 236 241 332 275 235 262 139 178 160 120 76 41 24 55 87 95 111 93 339 352 348 308 65 226 249 275 320 339 220 240 252 263 266 267 250 227 228 242 253 258 272 288 277 255 239
222 219 222 226 225 218 210 200 190 179 165 158 158 152 133 139 202 215 220 192 219 238 121 125 139 148 157 156 173 174 134 166 187 175 154 143 170 207 236 223 171 140 201 191 172 208 260 294 276 131 218 197 170 152 155 211 189 157 144 140 134 128 131 280 271 269 266 265 301 300 240 250 267 265 247 247 253 252 247 246 248 255 264 272 275 268 257 242
227 226 228 227 227 223 211 198 192 182 166 161 158 145 137 196 211 211 213 216 261 19 51 96 98 113 148 166 211 175 152 210 176 153 139 138 168 212 234 234 205 133 107 146 163 182 215 281 212 174 197 188 186 189 163 141 156 186 161 138 157 161 167 216 224 228 259 281 306 295 233 201 216 260 246 246 264 264 257 258 258 260 265 267 265 258 251 242
229 232 234 230 228 225 212 198 194 185 172 164 158 157 179 200 222 217 207 197 138 43 25 61 96 118 183 279 290 194 164 214 164 131 157 168 186 204 199 210 204 165 135 175 209 165 202 261 245 247 142 167 181 189 121 111 139 217 125 117 188 188 158 172 200 182 190 311 303 246 226 217 215 269 267 257 276 271 257 259 260 260 263 265 262 256 248 244
228 233 234 228 226 225 215 197 193 188 176 165 158 185 191 206 210 203 189 153 155 138 101 72 83 124 197 242 274 227 229 106 147 142 202 205 230 211 201 212 198 185 179 179 182 136 175 269 302 351 29 136 181 172 112 128 180 165 132 177 214 173 124 116 239 49 72 270 271 209 247 293 310 280 270 249 260 274 272 265 255 254 258 260 258 253 246 244
224 229 231 225 223 229 222 203 192 188 179 168 180 196 200 219 186 151 166 142 144 142 130 173 184 151 183 189 198 205 196 101 153 174 199 195 252 211 202 229 200 194 199 178 186 199 161 245 317 34 153 307 6 97 72 50 110 125 182 203 177 96 89 105 225 348 44 249 271 250 249 284 290 273 304 37 240 260 269 261 254 255 254 251 251 249 245 244
228 234 236 230 228 232 228 214 195 185 179 167 201 209 217 227 184 121 150 135 127 143 159 205 196 161 177 185 196 184 173 177 173 186 187 185 248 207 178 208 207 200 204 185 206 235 150 223 305 29 192 294 10 112 90 20 61 122 180 177 127 141 199 116 160 221 169 247 281 295 266 252 214 228 268 184 217 234 245 248 255 257 246 246 249 246 243 242
236 240 241 236 230 228 228 218 196 182 177 170 198 207 217 217 203 117 146 148 141 161 187 205 183 145 176 175 169 167 181 189 168 177 188 185 235 207 176 192 205 197 196 184 187 225 135 201 269 322 267 310 13 164 181 191 31 53 95 137 103 123 174 163 150 169 174 227 277 312 302 256 218 202 197 208 212 214 228 235 240 248 244 245 252 251 244 242
225 233 250 236 226 226 223 210 192 182 178 189 199 206 221 203 200 164 167 160 149 173 193 198 170 166 179 168 156 169 187 190 170 184 206 191 217 239 190 185 162 170 184 183 192 173 108 198 239 303 320 203 193 213 193 182 172 152 158 170 181 117 115 161 154 131 136 166 224 281 284 266 240 185 191 208 213 204 212 220 220 245 252 249 255 258 251 245
210 224 256 223 217 222 211 198 191 185 172 200 214 231 265 209 165 220 217 217 301 232 162 168 174 174 165 163 184 178 167 175 181 192 223 208 210 241 206 182 157 138 151 176 201 196 164 184 185 201 241 204 221 245 214 195 179 176 190 192 186 165 126 142 238 222 130 174 193 180 268 269 244 185 197 202 213 206 206 232 239 245 255 258 261 265 257 247
204 221 241 202 204 208 196 190 194 182 173 207 212 207 219 229 195 230 237 238 259 318 40 152 171 173 165 170 178 159 155 173 187 192 222 223 211 215 206 186 167 154 147 164 207 186 145 119 140 197 219 218 239 267 192 196 132 117 195 201 164 142 135 156 210 226 155 217 198 120 266 272 243 181 209 197 225 233 207 227 250 249 249 257 263 265 262 252
209 221 209 188 204 199 188 187 199 190 198 213 197 198 202 211 194 185 219 225 218 214 217 220 172 181 193 170 154 163 174 184 191 199 216 229 221 218 196 180 167 156 152 162 225 150 123 127 182 242 301 303 315 349 42 54 91 109 289 173 162 188 189 171 192 183 154 209 193 126 253 266 257 176 250 224 248 268 235 218 236 246 243 249 260 268 272 263
215 222 208 194 206 197 187 179 187 199 212 173 186 206 206 220 222 189 197 214 208 173 168 221 212 198 202 152 155 179 187 192 202 208 211 214 220 216 189 178 170 166 178 187 174 170 166 183 187 183 320 317 318 318 333 15 88 178 223 201 195 197 179 137 95 109 203 220 188 179 244 254 270 322 309 293 267 277 255 229 230 240 243 247 258 274 280 271
210 219 211 200 200 197 195 192 182 196 204 178 192 202 198 222 228 210 209 208 205 196 178 225 226 193 180 159 170 187 196 208 216 206 208 220 229 214 190 183 178 186 205 194 161 170 173 193 182 177 215 229 235 238 214 173 137 196 223 202 201 196 179 187 198 173 233 223 169 200 239 249 327 316 305 299 280 274 258 241 234 239 243 246 253 271 276 269
191 210 209 191 195 199 203 194 184 190 201 190 209 202 198 216 220 209 210 207 208 206 203 232 212 177 170 169 183 201 213 226 228 184 203 220 226 286 196 191 189 196 204 182 157 160 154 249 202 198 213 220 232 238 174 133 148 203 217 198 199 204 192 194 209 209 221 186 173 227 236 250 274 275 282 271 250 254 259 246 237 238 239 239 248 265 271 268
187 195 188 176 194 204 208 190 179 188 201 195 194 179 200 212 213 194 205 210 209 200 202 232 191 197 213 195 197 212 211 219 215 195 206 209 221 326 229 196 203 207 202 177 165 156 109 245 217 223 228 230 242 236 172 153 178 200 205 198 201 203 193 193 215 219 190 136 242 241 221 243 255 240 229 249 241 245 255 243 234 232 233 238 251 260 262 262
210 208 193 184 187 200 204 194 183 187 196 193 192 158 195 210 210 191 201 208 202 189 190 218 209 212 215 204 204 210 185 194 219 217 213 192 161 348 240 216 224 213 192 173 175 157 136 219 220 229 237 245 256 242 179 183 202 198 200 204 201 196 194 202 217 220 186 187 247 243 169 220 248 234 211 224 219 225 236 235 233 233 239 248 254 255 255 257
241 256 199 189 195 203 200 200 194 192 191 178 184 207 192 201 210 209 195 177 192 196 192 208 219 216 217 213 209 210 196 192 220 223 205 189 178 164 197 230 224 197 162 154 193 158 161 220 222 214 233 252 256 243 183 193 215 209 210 212 205 199 201 208 216 219 209 219 244 245 216 242 251 225 200 214 219 230 241 246 243 246 252 255 253 250 253 255
235 263 218 192 207 210 196 195 192 199 199 180 188 211 199 201 210 211 193 175 190 198 191 214 227 211 207 218 213 222 225 211 221 227 199 195 204 182 202 211 145 160 164 161 202 180 189 220 214 178 224 256 253 243 195 188 208 232 233 227 219 213 210 212 217 218 216 231 244 248 260 265 255 169 179 210 220 234 251 253 246 246 249 248 246 247 250 253
242 252 270 269 229 203 185 181 180 198 205 190 198 207 202 212 211 202 207 204 203 196 186 214 229 211 201 217 210 225 235 223 228 238 198 201 220 202 208 193 116 127 184 172 159 161 187 216 160 139 213 250 250 237 202 168 194 255 254 238 227 221 214 213 217 214 209 223 239 243 251 257 244 139 173 205 213 229 243 244 244 245 244 242 242 244 249 253
250 252 257 262 264 218 198 173 175 200 206 193 203 206 207 219 209 190 207 218 213 216 210 213 224 212 197 212 210 225 235 233 237 249 243 232 238 217 194 178 148 150 164 155 149 165 171 188 184 168 211 249 251 212 160 128 166 250 249 241 231 219 203 210 221 221 212 211 222 226 236 246 236 156 189 206 201 217 232 238 241 245 245 243 242 244 250 255